Wetbulb
50.48 50.17 49.96 50.61 51.24 50.47 49.14 44.70 38.74 48.25 50.45 43.92 44.41 41.83 44.48 46.31 46.26 48.51 46.14 46.09 45.34 43.40 43.66 42.29 42.20 40.63 42.84 45.81 43.05 38.19 40.49 37.59 30.55 31.38 38.20 39.10 36.41 33.68 33.73 27.90 26.69 28.51 25.00 28.55
51.05 50.60 50.02 50.21 50.30 49.97 47.74 40.58 39.58 47.87 47.00 35.81 40.99 44.08 44.14 45.74 44.92 45.64 45.41 44.67 46.08 46.70 43.33 40.12 43.38 44.19 47.67 46.10 41.92 39.63 39.71 34.87 29.19 30.03 31.38 33.16 31.49 34.74 36.01 35.57 33.01 27.24 23.29 26.57
51.11 50.59 50.05 50.19 50.26 50.81 47.16 39.76 32.91 38.48 42.42 40.30 34.73 34.36 37.59 40.91 41.29 41.97 40.20 40.45 44.02 43.81 42.13 44.72 42.18 43.14 43.19 40.24 43.99 44.81 44.02 38.47 33.76 31.39 32.79 32.97 28.50 32.80 35.61 34.28 28.00 28.96 30.00 32.51
51.33 50.79 49.95 50.00 49.80 49.98 45.72 39.20 34.86 36.51 32.13 33.54 33.08 33.32 32.91 33.31 34.20 37.02 37.26 37.31 35.47 35.43 38.04 40.68 40.14 42.85 42.64 39.68 41.38 40.54 38.99 33.96 36.82 37.88 39.19 36.62 34.67 32.82 34.11 32.37 32.92 29.97 32.73 33.08
51.26 50.78 50.22 49.98 49.95 49.93 43.31 36.90 35.80 37.19 35.35 34.62 33.28 32.71 32.06 32.84 34.56 34.37 34.06 32.88 33.29 33.40 31.86 32.37 31.70 33.51 34.70 34.56 37.72 37.66 38.28 32.31 33.80 32.39 36.22 36.13 33.39 35.24 35.56 34.95 34.76 33.81 33.63 32.50
50.77 50.78 50.52 49.80 49.95 49.03 42.17 42.66 42.82 39.13 36.08 34.43 33.37 33.26 33.95 33.92 34.65 35.75 36.77 35.72 33.97 33.33 35.34 37.71 37.80 37.45 36.52 34.64 33.68 33.69 32.75 31.78 30.31 27.79 32.62 31.95 27.47 31.46 33.75 34.89 36.89 35.38 31.00 35.03
50.29 50.51 50.31 49.95 49.73 48.61 44.88 43.20 41.04 35.32 31.12 33.14 32.88 34.74 35.34 33.95 34.10 32.70 34.96 35.96 34.36 37.75 39.33 40.27 39.47 37.64 36.38 36.03 36.02 37.05 32.55 32.13 30.90 27.04 28.73 19.86 29.14 33.84 35.57 33.73 35.24 36.66 36.75 36.98
49.61 49.85 50.09 49.99 49.73 49.39 44.84 44.25 39.28 33.35 30.89 35.08 34.78 34.70 34.42 35.77 36.36 34.80 34.57 36.51 38.49 40.57 36.27 31.57 30.14 30.48 31.59 32.52 34.55 34.47 36.32 32.60 28.48 24.93 24.76 28.51 30.96 30.14 30.10 28.95 28.96 34.01 32.43 33.40
49.30 49.61 49.70 49.64 49.75 49.47 45.96 44.03 42.87 36.56 31.97 31.40 35.27 33.58 34.04 31.15 31.16 32.09 34.99 38.76 40.31 38.98 34.03 30.38 24.16 23.26 26.28 25.85 28.52 34.92 35.30 35.26 30.05 27.68 22.37 20.13 26.01 29.05 33.46 33.19 23.03 33.63 34.33 33.64
48.58 48.91 49.35 49.27 49.35 49.31 46.98 43.42 42.64 36.82 31.06 35.05 35.58 32.33 31.95 35.05 32.93 30.81 33.23 34.57 35.09 37.91 30.99 26.93 25.46 24.90 30.93 25.21 24.42 23.25 28.13 29.13 26.63 26.51 24.49 27.66 33.47 33.62 34.68 22.50 24.24 33.25 34.00 33.60
47.98 48.31 48.57 48.73 48.88 48.94 47.16 41.79 43.14 37.90 32.41 35.06 37.04 37.49 34.04 34.10 33.64 28.55 33.88 32.50 32.64 30.90 27.28 27.72 26.30 26.28 28.49 28.05 29.40 25.76 24.74 24.62 24.90 26.44 23.83 21.20 34.82 31.65 27.54 31.44 33.02 34.13 32.85 33.14
47.20 47.33 47.55 48.04 48.11 48.15 47.21 38.89 43.30 41.44 34.45 33.55 38.45 38.72 39.25 37.92 37.41 34.37 34.56 32.34 31.45 32.49 28.68 29.80 29.22 26.45 26.89 26.33 22.18 31.37 25.18 28.97 25.54 26.23 24.59 31.18 32.82 33.11 34.50 34.87 33.96 33.76 33.34 33.37
46.49 46.65 47.04 46.99 47.23 47.71 45.62 40.23 41.72 39.16 34.37 33.89 34.19 32.71 38.02 40.27 39.43 40.41 30.33 31.68 34.91 32.48 35.89 29.12 29.78 25.61 27.59 21.70 24.90 25.99 30.89 32.89 28.91 28.45 31.46 33.62 34.25 35.14 34.12 34.34 34.61 36.07 34.95 34.69
46.03 46.27 46.31 46.18 45.55 46.39 45.27 39.50 41.63 39.92 35.10 28.75 29.80 38.77 35.27 39.18 39.16 38.81 38.76 36.67 36.60 35.92 36.10 31.82 29.73 26.48 31.43 25.27 27.02 28.01 30.61 30.46 28.04 28.34 31.76 33.33 34.39 34.56 35.82 36.03 35.16 34.91 34.51 33.78
45.62 45.98 45.55 45.22 44.71 44.83 43.64 42.01 42.26 42.12 34.92 26.56 27.98 33.12 35.49 36.72 36.96 36.54 37.13 36.31 35.20 33.34 30.67 29.43 27.54 30.69 28.58 26.89 26.97 25.95 30.65 28.83 26.53 25.93 32.64 32.42 32.21 34.55 36.34 34.54 33.67 33.99 32.48 30.39
45.15 45.45 45.28 45.00 44.84 43.88 38.89 32.77 40.73 42.67 41.05 31.08 20.12 31.55 30.25 30.54 33.03 33.91 34.11 34.53 34.31 33.97 31.46 30.64 31.49 32.92 29.95 26.37 22.99 28.48 31.61 32.13 32.81 31.22 35.31 35.17 35.17 33.16 31.04 30.51 31.91 32.41 31.84 31.40
44.62 44.76 44.81 45.09 44.48 40.71 35.16 33.58 38.58 43.46 40.92 31.36 22.71 23.66 26.87 28.19 28.43 31.06 30.95 32.44 32.03 31.83 30.94 30.00 29.59 30.71 31.94 28.11 23.43 28.62 29.74 27.73 28.81 30.14 31.40 30.91 28.42 28.11 30.06 28.57 28.49 30.68 28.81 29.88
44.16 44.35 44.25 44.13 44.69 41.47 35.45 39.74 43.03 42.43 35.22 32.36 19.72 20.54 22.63 28.11 22.88 25.57 30.87 28.87 29.85 30.22 29.13 29.34 26.33 27.08 27.30 23.63 26.30 24.75 23.61 25.57 25.49 24.51 26.29 26.32 26.99 27.73 26.93 26.87 27.27 25.91 25.73 26.40
44.13 43.99 43.49 40.17 38.51 33.10 34.93 43.11 43.36 41.21 35.06 23.05 24.30 16.37 15.07 26.45 24.01 27.28 28.94 30.15 25.33 29.65 26.82 26.74 27.60 21.76 21.23 22.69 19.84 19.91 20.01 19.78 20.29 22.26 24.01 24.69 24.53 25.27 25.03 24.74 23.93 23.85 23.24 24.38
44.18 39.94 34.44 31.05 33.85 42.06 41.75 35.91 31.92 31.76 31.57 31.28 23.71 24.43 20.16 25.64 23.12 21.75 26.33 26.89 24.07 18.89 22.77 24.12 21.49 20.70 17.15 16.92 16.56 15.44 15.49 16.75 18.80 19.46 21.87 20.99 21.50 22.55 22.54 21.57 23.24 24.24 23.95 24.64
37.10 32.44 30.67 32.84 38.81 34.47 30.70 26.79 25.22 26.30 23.94 27.41 24.05 25.29 23.65 26.99 22.05 21.54 25.59 22.02 24.14 16.03 17.04 17.63 18.07 16.27 7.26 11.34 11.37 14.43 15.62 16.86 16.55 18.09 20.31 21.27 20.63 20.26 19.53 21.13 23.09 23.57 23.64 23.40
35.35 34.47 35.04 33.14 31.11 29.56 25.81 23.32 25.05 23.89 20.78 23.46 24.31 22.64 25.10 25.75 26.81 24.93 25.44 19.16 19.23 10.16 16.50 15.01 9.80 8.41 14.43 11.57 11.71 16.03 15.59 15.27 16.93 17.88 15.38 18.51 21.40 21.20 20.90 20.95 21.59 21.70 22.08 22.35
35.52 32.67 28.95 28.00 23.77 20.37 18.72 11.44 15.82 18.92 19.55 23.30 22.08 20.66 22.28 21.53 24.37 24.00 22.48 16.95 15.25 17.96 13.84 10.59 7.92 14.03 12.44 9.52 12.34 14.54 15.27 15.73 18.03 18.78 19.80 19.58 18.89 20.23 19.56 19.43 19.78 19.29 17.51 19.22
30.74 26.79 20.11 19.81 16.02 17.19 18.58 17.39 17.69 19.54 22.58 22.65 23.33 21.57 20.42 23.80 20.50 22.13 16.95 18.54 15.90 11.44 5.33 4.26 9.38 11.05 13.24 14.95 16.09 15.59 15.20 16.06 16.97 17.68 17.97 18.51 17.80 17.85 19.72 19.88 18.31 16.72 16.55 18.87
22.43 21.50 19.17 16.47 15.80 15.15 15.40 16.49 19.07 20.04 20.60 22.58 19.84 20.78 22.11 19.82 18.12 18.28 16.69 12.25 7.40 8.10 5.67 9.19 11.48 14.09 13.88 14.45 15.49 14.01 13.29 11.00 10.32 11.96 13.34 13.43 14.25 13.36 14.81 17.18 16.31 16.23 16.32 17.42
19.56 16.87 15.21 16.63 16.05 14.59 16.66 17.77 18.17 18.03 18.10 23.09 22.76 19.27 17.09 15.99 16.08 13.16 10.78 9.01 4.77 9.23 11.53 15.17 15.36 15.29 14.32 13.65 14.32 13.86 10.81 9.52 9.63 6.88 10.63 13.34 9.60 9.85 11.40 11.68 12.25 13.19 14.37 15.40
13.25 12.82 16.50 16.20 16.78 15.10 15.41 15.78 14.36 17.19 16.50 17.96 18.41 14.45 12.59 13.73 12.47 9.74 10.53 6.93 10.65 13.19 14.62 15.71 13.90 11.17 8.46 8.77 12.92 14.21 13.69 11.72 8.04 3.86 6.73 9.43 7.26 3.14 2.64 7.58 11.57 11.99 15.09 14.24
MSLP
1019.67 1019.92 1020.02 1020.18 1020.21 1020.45 1020.31 1020.27 1020.09 1019.15 1019.14 1018.97 1017.22 1015.72 1015.42 1015.74 1015.20 1014.96 1014.32 1014.19 1013.58 1013.29 1013.18 1012.81 1012.29 1011.81 1011.62 1011.79 1012.61 1013.68 1013.99 1014.40 1014.97 1014.83 1014.60 1015.08 1015.70 1015.94 1016.49 1016.97 1016.70 1016.20 1015.64 1012.99
1019.65 1019.74 1019.90 1020.07 1020.09 1020.33 1020.51 1020.45 1020.28 1019.58 1019.36 1018.49 1017.10 1016.04 1015.29 1015.44 1015.42 1015.09 1014.44 1013.88 1013.54 1013.69 1012.91 1012.89 1011.67 1011.21 1011.42 1011.95 1012.53 1013.00 1014.00 1014.51 1014.76 1014.58 1015.23 1015.18 1015.19 1015.10 1015.14 1015.49 1015.58 1015.23 1015.63 1013.11
1019.23 1019.44 1019.66 1019.93 1019.97 1020.07 1020.64 1020.91 1020.72 1020.29 1019.61 1019.10 1018.93 1018.06 1016.84 1016.22 1016.25 1015.90 1015.73 1014.91 1013.77 1013.51 1012.68 1012.38 1011.49 1011.31 1012.18 1012.33 1012.21 1012.65 1012.94 1013.46 1013.36 1013.08 1013.38 1013.53 1014.56 1014.21 1014.20 1014.77 1014.58 1014.31 1012.60 1012.59
1018.78 1019.22 1019.25 1019.71 1020.02 1020.00 1020.83 1020.95 1020.68 1020.76 1020.21 1019.84 1019.64 1019.46 1018.81 1018.07 1017.59 1017.36 1016.87 1016.17 1016.05 1015.40 1014.10 1013.47 1012.89 1012.73 1013.13 1013.53 1014.12 1013.84 1013.82 1013.17 1013.31 1012.22 1012.97 1013.49 1013.53 1013.47 1013.58 1013.60 1013.36 1013.69 1012.06 1011.95
1018.33 1018.65 1018.99 1019.29 1019.73 1019.92 1020.57 1020.94 1020.91 1020.92 1020.75 1020.45 1020.02 1019.61 1019.28 1019.06 1018.64 1018.93 1018.35 1017.94 1017.59 1017.28 1016.79 1016.55 1015.99 1015.94 1015.52 1015.66 1015.55 1015.26 1015.26 1014.64 1014.42 1013.82 1013.97 1013.94 1013.57 1013.26 1013.33 1013.03 1012.86 1012.70 1012.77 1011.30
1017.78 1018.12 1018.50 1019.06 1019.32 1019.58 1020.00 1020.41 1020.58 1020.65 1020.24 1020.28 1020.10 1019.51 1019.24 1019.37 1019.34 1019.18 1019.19 1018.90 1018.64 1018.08 1017.75 1017.30 1017.38 1017.52 1017.49 1017.56 1017.41 1016.90 1016.63 1015.93 1015.48 1014.45 1014.28 1014.44 1013.53 1012.23 1012.47 1011.95 1012.10 1012.57 1012.29 1011.11
1017.31 1017.50 1017.91 1018.33 1018.76 1019.08 1019.58 1020.06 1020.52 1020.65 1019.92 1019.97 1019.65 1019.35 1019.13 1019.20 1019.39 1019.47 1019.33 1019.29 1019.09 1018.92 1018.55 1017.99 1017.69 1017.60 1017.38 1017.41 1017.18 1017.40 1016.98 1016.36 1015.88 1015.18 1014.91 1013.64 1010.99 1010.21 1010.70 1011.25 1010.94 1011.28 1011.23 1011.30
1016.74 1017.08 1017.34 1017.72 1018.17 1018.57 1019.32 1019.69 1020.30 1020.71 1020.06 1019.62 1019.12 1018.83 1018.64 1018.88 1018.90 1019.21 1019.06 1019.05 1018.91 1018.99 1019.03 1018.85 1018.07 1017.25 1016.78 1015.97 1015.85 1016.04 1016.44 1016.47 1015.72 1014.96 1013.88 1012.36 1011.53 1011.22 1010.75 1010.80 1010.77 1010.65 1010.88 1011.05
1016.26 1016.38 1016.88 1017.10 1017.49 1018.13 1018.76 1019.10 1019.60 1020.38 1020.26 1019.19 1018.48 1018.54 1018.56 1018.60 1018.62 1018.92 1018.65 1018.50 1018.42 1019.02 1018.89 1018.60 1017.75 1016.84 1016.18 1015.54 1015.26 1014.93 1015.59 1015.79 1015.51 1014.70 1013.38 1012.26 1011.17 1011.01 1010.69 1010.81 1010.51 1010.52 1010.63 1010.96
1015.81 1015.91 1016.16 1016.48 1016.89 1017.34 1018.01 1018.21 1018.60 1019.74 1020.01 1019.23 1018.61 1018.47 1018.33 1018.19 1018.31 1018.38 1018.45 1018.35 1018.65 1018.60 1018.37 1017.93 1017.29 1016.50 1015.87 1015.43 1014.90 1015.16 1014.95 1015.15 1014.41 1014.16 1013.02 1011.99 1011.21 1010.70 1010.78 1011.41 1011.09 1009.97 1010.22 1010.31
1015.29 1015.47 1015.59 1015.77 1016.23 1016.72 1017.35 1017.74 1017.93 1018.56 1019.14 1018.87 1018.49 1018.26 1018.14 1018.08 1018.20 1018.45 1018.94 1018.94 1018.60 1018.71 1018.28 1017.51 1016.89 1016.67 1015.83 1015.11 1014.33 1013.87 1013.89 1014.15 1013.78 1013.68 1012.98 1011.39 1010.20 1010.71 1010.60 1010.06 1010.28 1010.22 1010.30 1010.35
1014.74 1014.96 1015.09 1015.09 1015.67 1016.06 1016.86 1017.71 1018.15 1018.40 1018.95 1018.58 1018.27 1017.93 1017.81 1017.79 1017.94 1018.61 1018.68 1018.48 1018.39 1018.34 1018.35 1017.67 1017.17 1016.54 1016.06 1015.38 1014.55 1013.27 1013.70 1013.24 1013.16 1012.86 1012.05 1011.45 1010.76 1010.29 1009.66 1009.68 1010.21 1010.50 1010.49 1010.52
1014.38 1014.87 1014.93 1015.09 1015.37 1015.69 1016.18 1017.12 1017.72 1018.55 1018.54 1018.51 1018.32 1017.56 1017.08 1017.33 1017.54 1018.00 1018.42 1017.91 1018.05 1017.80 1017.93 1018.10 1017.83 1017.36 1016.89 1016.29 1015.32 1014.68 1013.95 1013.57 1013.10 1012.94 1011.99 1011.23 1010.94 1010.51 1010.30 1010.22 1010.23 1010.32 1010.21 1010.38
1014.14 1014.41 1014.70 1015.08 1015.37 1015.50 1016.26 1016.91 1017.40 1017.89 1018.16 1018.08 1017.21 1016.62 1017.16 1016.80 1016.84 1017.34 1017.54 1017.34 1017.53 1017.67 1018.09 1017.94 1017.39 1016.74 1015.83 1015.62 1014.82 1014.56 1013.85 1013.46 1012.87 1012.37 1011.37 1011.00 1010.55 1010.48 1010.27 1010.00 1009.98 1010.27 1010.30 1010.56
1013.97 1014.30 1014.66 1014.93 1015.19 1015.62 1015.93 1016.46 1016.93 1017.17 1017.54 1017.53 1017.47 1016.89 1016.03 1016.54 1017.18 1016.95 1016.66 1017.35 1017.72 1017.79 1017.55 1017.25 1016.87 1016.16 1015.70 1014.89 1014.67 1013.74 1012.64 1012.35 1012.44 1011.77 1010.84 1010.52 1010.14 1010.05 1009.78 1009.91 1010.07 1010.14 1010.37 1010.71
1013.85 1014.10 1014.42 1014.70 1015.15 1015.74 1016.34 1016.86 1016.99 1016.97 1016.97 1017.95 1017.71 1016.29 1016.52 1017.04 1017.08 1016.75 1016.72 1016.80 1017.35 1017.35 1016.94 1016.20 1015.66 1015.31 1015.33 1014.39 1013.71 1012.64 1012.12 1011.89 1011.96 1012.00 1011.03 1010.17 1010.50 1010.71 1010.29 1010.30 1010.37 1010.35 1010.48 1010.49
1013.64 1013.86 1014.14 1014.55 1014.96 1015.66 1016.40 1016.44 1015.99 1015.81 1016.99 1017.94 1018.18 1017.24 1016.86 1016.96 1017.00 1016.98 1017.11 1017.31 1017.17 1016.71 1016.82 1016.10 1015.60 1015.16 1015.52 1013.98 1013.27 1012.96 1012.77 1013.08 1012.57 1012.49 1011.65 1011.63 1011.32 1011.66 1011.08 1010.74 1011.00 1010.95 1010.85 1010.97
1013.36 1013.62 1013.96 1014.27 1014.82 1015.73 1016.28 1016.08 1015.78 1016.10 1017.28 1018.11 1018.26 1017.34 1017.15 1016.91 1016.96 1017.12 1017.04 1016.97 1016.79 1016.52 1016.12 1015.73 1015.46 1015.56 1015.51 1014.95 1013.41 1013.59 1013.92 1013.87 1013.46 1013.45 1013.30 1013.06 1012.68 1012.47 1012.19 1011.79 1011.60 1011.65 1011.65 1011.64
1013.09 1013.50 1013.89 1014.54 1015.24 1015.71 1015.77 1015.55 1015.97 1016.25 1017.06 1017.55 1017.74 1017.41 1017.01 1017.04 1016.81 1016.99 1017.20 1016.94 1016.24 1015.93 1015.71 1015.49 1015.43 1015.50 1015.77 1014.97 1015.10 1015.31 1015.59 1015.66 1015.32 1014.73 1013.90 1013.52 1013.45 1013.30 1012.97 1012.60 1012.37 1012.39 1012.45 1012.45
1013.04 1013.90 1014.52 1015.24 1015.55 1015.22 1015.58 1016.19 1016.61 1016.62 1016.73 1016.97 1016.76 1016.20 1016.41 1016.60 1016.85 1016.91 1017.21 1016.86 1016.42 1016.11 1015.80 1015.92 1016.07 1015.78 1016.49 1016.96 1017.13 1017.24 1017.11 1016.84 1016.45 1015.73 1014.93 1014.53 1014.26 1014.14 1013.54 1013.28 1013.07 1012.90 1012.87 1013.25
1013.09 1014.32 1015.22 1015.95 1015.69 1015.73 1016.09 1016.42 1016.62 1016.40 1016.22 1015.95 1015.61 1015.55 1015.79 1015.93 1016.31 1016.57 1016.55 1016.22 1016.31 1016.33 1016.09 1016.52 1016.57 1016.75 1017.66 1018.14 1018.24 1018.03 1017.80 1017.39 1016.98 1016.70 1016.25 1015.75 1015.31 1014.88 1014.43 1014.18 1013.90 1013.83 1013.95 1014.09
1012.87 1013.99 1015.39 1016.01 1016.12 1015.99 1016.12 1015.92 1015.86 1015.85 1015.57 1015.39 1015.53 1015.74 1015.68 1016.05 1016.07 1016.21 1016.04 1016.25 1016.33 1016.48 1016.67 1017.28 1017.37 1018.14 1018.66 1018.91 1018.79 1018.43 1018.19 1017.87 1017.48 1017.02 1016.94 1016.48 1015.96 1015.58 1015.31 1015.26 1015.16 1015.16 1015.21 1015.24
1013.40 1014.22 1015.15 1015.57 1016.30 1016.25 1016.11 1015.96 1016.01 1015.99 1015.48 1015.78 1015.96 1016.09 1015.94 1016.43 1016.47 1016.25 1016.02 1016.27 1016.45 1016.78 1017.34 1017.48 1018.04 1018.86 1019.29 1019.48 1019.19 1019.00 1018.70 1018.50 1018.21 1017.91 1017.51 1017.19 1017.00 1016.72 1016.62 1016.56 1016.54 1016.44 1016.33 1016.32
1014.01 1014.82 1015.61 1015.72 1016.16 1016.19 1016.20 1016.50 1016.51 1016.77 1016.48 1016.39 1016.36 1016.30 1016.31 1016.30 1016.45 1016.13 1016.12 1016.45 1016.93 1017.40 1017.86 1018.04 1018.80 1019.31 1019.61 1019.57 1019.60 1019.52 1019.50 1019.38 1019.18 1018.83 1018.56 1018.35 1018.19 1018.01 1017.76 1017.59 1017.51 1017.37 1017.25 1017.14
1015.55 1015.78 1016.03 1016.44 1017.10 1017.43 1017.58 1017.62 1017.58 1017.70 1017.48 1016.97 1016.85 1016.73 1016.71 1016.64 1016.66 1016.70 1016.84 1017.26 1017.49 1017.78 1018.13 1018.73 1019.27 1019.60 1019.85 1019.88 1019.84 1019.82 1019.80 1019.76 1019.70 1019.37 1019.22 1019.05 1018.89 1018.71 1018.44 1018.17 1017.85 1017.77 1017.79 1017.72
1017.40 1017.84 1017.89 1017.94 1018.02 1018.30 1018.39 1018.57 1018.62 1018.86 1018.41 1017.58 1017.32 1017.11 1017.07 1017.05 1017.11 1017.28 1017.35 1017.81 1018.09 1018.74 1019.12 1019.43 1019.74 1019.95 1020.13 1020.19 1020.12 1019.97 1019.84 1019.81 1019.75 1019.62 1019.49 1019.37 1019.28 1019.17 1018.87 1018.42 1018.15 1017.99 1017.86 1017.76
1019.15 1019.53 1019.57 1019.46 1019.49 1019.74 1019.97 1020.10 1020.19 1019.94 1019.36 1018.50 1018.18 1018.14 1018.00 1018.21 1018.12 1018.35 1018.67 1019.30 1019.73 1020.03 1020.07 1020.14 1020.27 1020.46 1020.49 1020.54 1020.16 1019.94 1019.78 1019.70 1019.64 1019.54 1019.40 1019.26 1019.26 1019.07 1018.91 1018.58 1017.83 1017.63 1017.31 1017.11
Wind_Speed
8 4 1 5 4 5 2 0 3 3 4 8 5 16 6 14 10 20 25 20 21 22 20 21 15 11 9 8 9 9 6 4 6 14 7 9 9 8 10 6 7 5 4 11
11 9 6 4 4 2 1 1 3 2 2 5 12 5 15 15 18 19 14 20 24 24 25 23 23 24 13 9 13 12 10 5 4 3 3 1 7 9 11 13 3 9 5 5
13 12 7 4 2 6 1 1 2 2 2 2 3 5 3 5 4 1 5 6 7 15 21 23 16 21 3 7 10 8 15 10 12 19 6 6 6 11 18 16 9 12 22 15
15 12 9 8 6 11 1 1 2 1 1 1 2 0 3 3 4 5 6 3 8 7 8 18 22 20 11 4 7 3 3 18 19 24 16 1 5 9 18 21 20 17 15 20
15 13 13 12 11 12 3 2 2 3 1 2 2 4 1 2 1 2 2 2 1 2 2 3 6 5 3 3 5 2 4 4 3 11 6 7 10 12 12 13 16 18 17 25
14 15 15 14 15 10 2 2 1 2 3 2 2 4 3 2 0 3 3 4 5 4 6 8 6 6 4 2 3 2 3 3 3 4 5 3 9 15 19 17 18 14 19 21
15 16 15 18 18 14 2 2 2 2 3 7 5 4 5 6 3 3 6 6 2 3 12 8 3 8 10 11 10 9 3 2 3 3 4 7 3 3 12 15 17 19 21 18
14 15 15 18 21 21 2 3 4 3 2 2 5 9 9 5 3 2 3 5 4 2 2 3 5 4 4 10 16 16 14 6 4 4 6 7 11 3 5 6 6 5 5 7
13 14 16 17 20 21 5 4 4 3 1 6 9 3 3 2 2 3 5 6 6 5 2 3 5 5 2 3 4 10 13 14 8 4 5 7 2 3 3 5 6 7 8 9
14 14 15 16 19 21 10 3 7 4 3 4 2 3 2 1 2 2 2 1 1 8 4 5 5 5 3 5 5 5 4 7 13 13 9 4 6 6 5 5 6 6 6 4
14 15 14 15 16 19 12 1 7 6 3 2 5 6 5 2 3 2 2 2 2 2 3 2 3 4 5 4 4 4 8 7 6 6 9 14 7 7 9 5 2 0 2 3
12 12 12 13 14 14 11 2 5 5 2 1 2 6 7 6 6 2 4 4 3 3 2 3 4 3 2 4 5 8 8 7 3 4 3 4 6 3 5 5 3 3 3 4
10 10 10 9 8 11 10 3 5 2 2 2 2 7 6 7 8 4 3 3 4 4 4 1 3 6 1 3 4 5 3 3 3 5 6 16 7 7 6 5 7 7 6 6
10 10 10 9 3 14 12 4 6 3 2 1 3 3 2 5 6 9 10 13 7 2 0 4 4 5 6 5 4 3 5 2 4 6 11 13 14 10 7 8 7 5 5 6
9 12 11 11 9 9 1 3 3 4 2 2 3 3 6 5 5 7 8 9 10 5 4 6 8 3 2 3 1 8 11 11 8 11 13 6 6 4 8 9 7 6 7 5
8 11 11 9 8 10 4 2 5 8 3 0 3 2 5 2 4 4 7 7 4 4 2 3 4 4 3 4 3 6 9 2 5 9 15 7 5 7 1 2 4 4 6 7
8 8 9 13 12 5 3 1 1 9 5 2 3 4 2 3 1 1 2 3 3 2 2 4 4 4 3 3 2 5 3 6 7 6 3 8 6 5 5 1 3 4 1 2
9 8 7 8 14 9 1 2 9 8 5 2 2 5 0 4 2 1 1 2 2 4 3 2 3 1 2 5 6 5 5 6 4 8 7 1 5 6 4 4 2 1 2 3
10 7 6 4 2 2 3 12 13 3 1 3 4 3 4 3 1 1 2 3 3 1 3 3 2 3 6 3 4 5 6 4 8 10 6 5 4 6 4 3 2 3 3 3
10 4 3 3 3 5 12 3 1 3 4 3 4 2 3 4 3 2 1 2 3 3 4 2 3 4 7 5 5 4 5 5 6 5 5 6 5 6 4 3 3 3 5 5
4 3 2 0 4 2 2 4 5 5 4 4 4 7 7 3 3 4 4 2 3 3 4 3 3 4 1 4 3 4 4 5 5 4 5 6 6 5 2 3 5 5 5 4
7 8 5 2 2 3 5 4 3 4 5 1 2 1 0 2 1 2 2 3 2 6 1 1 4 1 3 4 4 5 6 6 6 5 4 5 6 6 5 5 5 5 5 6
4 3 4 3 2 5 5 7 3 3 2 3 1 1 2 1 1 3 2 5 4 1 2 4 1 1 3 4 4 5 5 7 7 7 7 7 7 8 7 6 6 5 6 6
2 4 5 5 4 3 3 3 3 2 2 1 2 1 2 1 2 0 4 1 0 3 3 5 1 1 3 3 3 3 4 6 6 6 6 6 5 4 4 4 3 3 3 2
3 2 2 2 3 2 1 1 1 3 3 1 0 0 2 2 2 2 1 3 4 5 2 1 1 1 0 3 4 3 3 3 4 3 3 4 4 3 4 4 2 1 2 3
3 5 1 2 1 2 1 4 2 4 4 2 2 0 2 3 2 3 5 2 2 2 2 2 2 3 4 4 5 5 4 4 4 4 4 5 4 4 5 4 4 4 4 6
4 3 3 3 2 3 2 3 3 4 3 1 1 3 1 1 2 2 3 3 2 3 3 2 3 3 4 4 6 7 6 5 4 4 5 6 5 4 3 8 8 7 8 8
Wind_Direction
195 200 233 345 313 335 295 56 239 3 339 200 226 230 189 223 254 227 241 256 255 250 255 259 255 239 195 159 141 173 213 222 214 215 194 208 202 198 177 177 221 221 160 257
219 218 222 226 343 201 274 267 308 358 72 240 225 232 237 237 246 247 232 237 235 243 247 254 243 247 231 185 165 177 164 231 278 260 30 205 215 204 217 234 295 205 178 259
223 221 220 203 192 161 277 165 274 296 236 74 346 342 312 222 24 155 351 318 275 228 239 236 250 256 243 347 236 164 174 218 204 238 233 121 189 205 211 210 218 229 233 248
237 229 205 189 191 131 91 150 218 26 274 235 223 305 324 317 326 3 26 5 20 355 259 239 245 257 258 68 4 11 233 225 236 251 258 267 212 200 212 215 229 227 247 247
243 230 201 196 185 145 131 268 231 165 275 212 182 157 223 267 256 240 267 228 285 359 305 345 348 351 11 27 344 318 26 259 218 267 248 263 258 242 235 232 233 241 259 264
248 227 204 198 185 175 149 149 256 266 179 197 202 197 185 275 238 185 278 358 310 259 267 243 226 208 219 225 332 293 212 201 188 245 165 193 261 234 231 230 229 214 234 248
246 237 216 201 194 192 145 145 106 220 238 216 217 216 188 197 221 260 270 295 256 25 5 347 229 231 243 249 234 214 259 217 187 222 128 222 262 75 209 230 232 227 240 251
248 247 235 215 207 200 173 139 144 178 237 269 273 262 254 275 275 298 242 234 241 44 43 299 277 222 238 224 224 219 210 216 244 233 212 323 307 235 164 174 245 251 272 263
241 240 239 225 217 208 186 178 125 151 213 216 232 213 210 243 213 214 224 234 191 171 245 215 234 240 259 215 254 214 216 216 227 210 231 225 72 55 48 100 253 210 241 248
248 244 244 235 224 217 206 171 147 127 198 243 192 201 230 156 260 282 242 104 221 194 198 235 233 239 231 233 212 178 186 220 231 240 253 227 235 196 126 182 248 201 202 208
254 250 247 241 227 218 212 83 175 151 176 212 207 177 194 203 215 204 72 297 212 263 257 236 213 233 228 240 262 183 177 184 210 226 247 261 176 118 180 168 36 253 168 204
250 250 239 224 216 209 189 126 149 115 154 261 316 264 271 264 271 247 185 231 179 244 317 327 345 322 312 237 249 228 246 197 232 199 216 341 315 42 259 33 174 203 213 203
240 229 216 198 201 212 168 130 144 130 200 242 241 232 235 220 221 204 224 253 199 228 183 247 248 249 135 273 291 342 285 254 253 306 242 254 243 256 256 234 218 219 186 164
219 206 209 206 223 200 182 151 167 183 94 284 272 90 237 227 201 204 222 247 266 269 57 248 263 258 187 214 230 209 216 84 224 261 261 290 286 251 255 241 228 209 204 193
216 200 203 197 186 211 220 105 163 219 175 203 265 243 213 189 187 215 223 243 247 245 226 223 240 258 224 232 182 248 244 244 235 251 263 202 261 316 241 231 242 235 194 186
219 214 204 187 165 104 76 163 210 211 199 165 295 267 176 139 190 230 246 244 232 216 239 242 220 283 221 229 249 271 273 302 339 292 303 256 215 255 251 305 318 295 207 194
226 220 212 199 180 121 153 213 235 170 118 144 288 272 91 52 81 228 231 220 236 203 235 229 241 218 221 250 197 234 340 10 353 356 339 306 31 338 340 26 20 326 82 176
231 222 218 200 165 136 150 286 139 116 95 147 238 262 65 181 158 276 196 235 197 210 220 226 216 126 221 258 229 75 27 327 61 9 358 315 307 312 316 344 334 219 179 145
213 212 186 98 70 117 233 174 168 27 140 188 205 212 253 155 210 116 204 280 235 206 226 222 147 212 223 289 40 34 23 360 318 319 315 329 312 299 321 321 293 224 155 116
201 139 92 183 192 216 119 95 179 202 194 208 237 182 244 158 128 208 236 189 244 241 217 106 228 254 88 31 29 3 329 313 321 330 353 5 349 330 317 360 10 119 121 113
131 131 120 61 359 64 109 204 195 190 222 198 227 213 206 214 162 210 199 216 224 237 246 168 223 253 344 354 4 314 317 323 295 262 295 303 286 292 61 41 47 71 90 103
128 112 101 108 186 193 212 204 162 221 219 111 153 142 127 81 13 219 172 215 175 243 150 211 253 7 30 357 336 351 359 349 3 13 12 5 23 19 48 49 56 61 71 76
86 86 132 182 140 206 208 190 225 213 166 145 155 165 142 52 255 213 207 218 221 106 208 228 159 29 11 339 337 358 14 13 18 25 31 33 34 36 40 46 36 50 60 59
96 163 178 208 176 240 43 20 29 31 1 81 238 108 197 134 189 300 236 100 222 233 235 234 84 58 6 359 359 24 6 12 5 13 13 22 28 18 25 45 37 41 53 100
65 331 222 94 101 77 49 278 258 44 314 280 169 228 237 166 231 216 113 192 246 203 233 70 100 93 313 347 354 350 339 330 323 316 326 321 321 321 306 304 270 258 277 280
46 30 32 28 269 114 63 2 69 19 325 283 271 130 226 204 269 190 217 227 219 72 40 34 360 5 349 335 331 314 289 278 275 278 265 283 286 269 269 294 286 264 241 249
44 48 32 338 48 33 44 5 8 335 287 291 333 231 174 54 220 234 28 23 25 9 354 347 349 323 298 291 294 293 289 285 276 269 268 262 253 264 269 268 269 238 240 225